Wind_Speed
19 20 20 21 21 22 22 22 22 21 20 20 19 17 15 14 12 9 6 6 2 2 7 6 4 4 2 2 2 2 2 1 1 3 3 3 3 4 2 1 3 6 5 5 4 5 8 3 5 5 3 3 4 2
19 21 21 22 22 23 23 23 22 21 20 19 18 17 15 13 10 7 3 2 6 4 5 5 13 16 14 9 1 0 1 2 3 2 1 1 2 2 3 3 2 3 2 2 3 2 2 1 1 1 1 3 2 4
20 21 22 22 23 23 23 23 22 21 20 19 18 17 15 14 10 5 4 5 4 3 6 4 8 10 21 30 20 4 2 2 3 1 3 2 3 4 3 4 2 3 2 2 2 3 2 3 4 2 1 1 3 4
22 23 23 23 23 23 23 23 24 24 23 20 17 15 17 15 11 8 5 4 4 2 3 4 3 6 6 12 27 28 2 3 3 2 1 3 3 4 1 1 3 1 7 3 2 2 7 8 6 4 5 5 6 8
24 25 25 24 24 24 24 25 25 24 22 18 17 19 20 15 10 9 13 12 12 3 3 6 17 4 3 11 17 22 15 5 2 2 4 3 3 3 2 1 3 4 3 3 1 4 3 5 4 5 8 11 10 12
25 26 26 25 24 24 25 25 22 21 22 24 24 22 18 11 5 2 2 6 16 9 3 4 5 3 3 9 12 12 8 5 3 3 2 1 1 2 3 3 1 3 2 1 1 4 10 9 7 8 6 9 7 13
27 27 27 25 25 25 25 24 23 25 28 30 27 20 11 8 9 4 2 2 12 10 2 5 4 1 2 5 4 3 8 3 4 2 3 3 3 4 2 3 4 5 4 5 10 10 5 6 5 8 10 10 11 13
27 28 27 26 26 26 26 21 23 29 32 31 20 15 6 10 7 4 3 4 15 2 2 3 4 3 4 3 4 1 4 3 2 1 2 3 4 3 3 5 8 7 9 8 4 4 7 7 4 5 5 7 8 8
28 28 28 27 28 29 26 17 25 32 32 20 10 1 4 2 3 4 3 4 13 2 2 2 3 0 4 1 1 3 1 3 1 3 3 3 3 4 2 11 11 11 5 11 10 9 8 7 5 5 6 7 6 7
28 29 29 29 29 27 17 19 28 30 25 9 3 2 2 2 5 8 3 3 3 3 2 3 1 3 2 1 1 2 1 1 3 2 2 3 3 1 1 7 7 6 12 12 12 9 8 8 6 5 6 5 6 8
30 30 29 29 26 17 14 22 28 28 9 6 6 2 7 5 4 3 2 3 3 3 4 3 4 5 1 2 1 1 0 1 3 3 2 2 3 3 7 8 7 7 6 6 11 11 9 8 6 6 5 5 7 8
31 31 31 28 17 13 18 25 25 14 8 8 7 7 5 2 0 2 2 2 4 1 1 3 2 3 2 1 2 2 4 1 2 1 3 2 1 7 9 10 9 9 11 11 11 11 9 9 7 6 5 5 6 7
32 33 32 18 12 14 22 24 24 14 4 0 1 1 1 0 1 3 3 1 1 1 1 3 3 2 2 2 1 2 3 2 2 3 2 0 3 7 8 9 9 8 10 10 9 9 8 7 7 7 6 5 5 7
33 35 21 7 14 21 22 26 18 1 2 1 1 4 0 1 0 2 3 3 2 3 7 6 4 2 0 2 1 3 2 2 3 4 4 2 7 9 8 7 9 8 8 8 6 6 5 4 5 4 4 4 5 7
35 32 1 12 22 20 24 17 6 2 1 1 1 2 2 4 3 4 3 2 3 2 2 2 2 1 2 2 1 3 3 4 3 1 1 3 9 10 8 7 8 8 6 4 3 2 2 2 1 1 1 1 2 3
36 11 7 22 18 24 16 4 2 1 1 1 0 2 4 3 4 4 3 3 3 4 3 3 2 3 2 2 3 5 5 3 1 0 2 5 8 8 7 7 6 6 6 5 4 3 3 3 2 1 2 2 2 2
26 3 20 18 22 19 3 2 0 1 2 2 1 0 3 4 4 2 2 2 4 3 2 1 1 2 3 2 4 3 1 2 3 4 4 5 6 6 5 5 5 4 4 3 2 3 2 2 2 2 2 1 3 4
8 25 18 18 17 11 3 2 2 1 1 1 2 2 3 2 3 3 2 2 2 0 1 0 2 3 4 4 3 2 2 3 5 5 4 4 4 4 4 4 5 5 5 3 3 1 2 4 3 2 2 1 1 0
26 20 15 16 9 3 3 1 2 2 1 2 2 2 2 2 2 4 3 3 3 2 1 1 3 2 1 1 2 0 1 0 3 3 4 4 4 6 5 5 5 4 2 2 1 2 2 3 4 3 2 1 3 3
13 6 16 8 5 1 2 0 1 1 2 2 2 2 3 1 3 3 3 3 1 1 2 2 2 1 1 2 1 0 1 1 3 4 4 3 4 4 5 3 2 1 0 0 1 1 2 3 2 1 3 3 4 4
6 10 10 6 2 1 1 2 1 1 3 2 1 2 2 1 1 3 3 5 2 1 1 2 1 3 1 2 4 1 1 1 3 4 3 4 3 4 4 3 3 2 2 2 1 1 2 2 3 1 3 5 5 3
6 13 4 3 2 1 2 2 3 3 2 3 3 2 2 1 1 1 1 1 3 2 1 2 3 2 2 2 3 4 5 7 7 8 7 7 4 4 5 6 3 2 2 3 2 2 1 2 1 1 4 3 4 3
9 4 3 2 2 1 2 2 2 1 2 3 4 1 2 2 2 1 1 1 1 1 2 2 3 2 2 3 6 8 7 9 8 8 7 7 7 6 6 6 6 5 5 5 2 1 2 3 3 4 4 3 2 1
4 3 3 3 1 3 3 2 1 2 2 2 3 2 3 3 3 2 3 3 3 3 3 3 0 2 2 4 4 6 7 5 6 5 4 6 7 6 6 6 7 8 7 5 6 5 5 5 5 5 4 3 1 4
3 4 2 4 1 2 3 3 4 2 3 3 4 2 3 3 2 3 3 4 4 4 5 4 3 3 3 2 3 4 4 2 3 4 4 3 5 6 7 7 7 5 4 5 8 8 7 6 4 3 2 0 3 8
3 2 3 4 2 3 3 3 4 4 3 3 3 3 2 1 2 3 3 3 3 3 4 4 3 2 2 2 2 2 3 4 2 4 3 3 5 6 5 5 5 5 4 4 5 4 4 3 3 2 1 3 6 7
4 3 2 1 2 2 2 1 1 1 2 3 3 4 3 2 2 2 2 1 2 5 6 6 5 4 4 2 1 2 2 1 2 4 6 6 5 4 3 4 5 3 2 1 2 3 4 5 6 7 8 7 6 6
2 2 4 6 2 1 1 2 3 3 2 1 1 1 3 3 2 3 2 5 4 2 3 4 5 6 6 5 3 3 4 7 9 9 8 7 7 5 4 3 4 6 6 3 3 4 6 7 8 9 10 11 11 9
2 1 2 3 2 1 1 1 2 1 1 2 3 0 2 1 2 2 4 8 4 0 2 3 0 3 3 8 12 8 4 2 3 5 4 3 2 3 6 5 5 4 6 10 10 9 10 10 11 10 10 11 10 10
2 0 2 2 2 2 2 1 2 2 1 2 1 0 1 1 2 6 4 9 4 3 3 1 1 1 4 5 5 4 5 6 5 3 1 1 2 4 3 4 6 7 5 5 7 8 10 11 13 13 14 13 14 14
3 1 2 2 2 0 1 1 2 1 1 1 1 1 1 2 3 4 6 7 5 5 3 1 2 2 3 3 3 3 3 3 3 3 3 1 1 2 4 3 3 3 2 2 3 3 4 5 7 8 10 11 12 13
2 2 2 1 1 1 1 2 1 2 3 2 2 2 2 3 3 2 6 6 2 2 2 1 3 2 2 2 2 1 1 2 3 5 3 2 2 4 4 2 2 4 4 5 4 4 4 4 5 7 8 8 9 11
2 1 2 2 2 1 1 2 1 1 2 3 2 1 0 1 3 1 2 2 2 3 3 2 3 3 3 2 2 1 1 1 2 2 3 2 3 5 7 8 8 9 9 9 9 8 7 7 7 5 4 8 7 9
Wind_Direction
344 343 342 340 337 336 332 332 334 334 335 337 337 339 341 342 346 343 291 228 238 262 276 228 240 231 216 216 214 31 208 141 135 206 214 182 212 201 231 234 200 200 185 207 143 206 245 125 137 218 9 20 8 350
342 340 339 337 334 329 329 327 329 329 330 329 330 332 333 333 335 331 284 214 217 247 283 259 254 250 243 241 120 311 356 216 173 98 162 162 187 172 225 231 189 232 251 315 217 25 31 104 315 114 115 65 35 332
344 341 341 339 336 332 331 329 328 328 327 324 323 325 326 326 318 285 271 244 231 276 277 268 236 261 239 233 224 219 213 163 168 261 145 140 238 182 198 227 201 213 183 262 225 138 104 67 95 79 198 336 338 319
349 347 343 340 338 335 333 331 329 327 326 325 322 322 324 317 304 263 234 243 216 293 282 280 294 264 259 214 205 207 129 114 102 177 210 205 237 225 208 339 263 106 163 206 255 152 125 79 61 50 71 60 61 49
349 347 343 339 338 335 332 330 329 329 329 336 331 323 319 311 297 267 246 238 227 294 304 294 309 271 220 193 196 202 206 209 170 177 207 214 147 165 72 275 239 198 167 192 225 131 88 97 45 14 55 27 18 37
347 347 345 341 339 338 336 335 336 339 341 336 327 318 310 298 273 251 251 218 209 188 272 291 332 282 2 164 171 185 196 212 225 222 205 167 46 160 158 228 191 186 221 234 123 140 109 107 73 46 53 50 354 58
347 346 344 342 340 338 335 332 334 334 334 332 326 312 290 253 204 211 345 347 182 171 247 296 299 210 315 133 144 154 181 194 218 200 203 164 178 184 229 237 156 162 159 134 131 127 93 51 47 16 14 9 13 37
342 344 343 341 340 336 333 329 333 334 335 333 326 318 265 200 211 253 201 241 172 225 242 280 282 294 7 173 151 156 160 182 167 198 162 173 148 213 239 139 146 130 110 121 120 72 101 113 92 61 37 28 28 17
342 342 342 341 339 336 333 332 334 335 335 334 331 69 113 120 154 137 330 170 175 278 287 244 272 341 356 51 85 138 204 189 106 207 178 205 166 223 158 165 168 169 163 146 122 112 112 105 85 53 40 36 29 5
341 342 342 342 340 335 345 344 338 339 340 347 11 273 144 81 323 133 182 151 194 209 228 257 291 272 319 354 119 176 210 128 186 123 164 220 230 356 248 163 157 160 141 142 133 128 130 109 93 70 45 27 8 356
341 341 341 342 338 341 348 342 341 345 349 14 7 343 320 332 158 187 193 219 160 225 201 246 241 266 201 267 157 300 49 169 205 141 242 197 240 157 148 130 130 135 131 121 109 107 100 104 100 89 62 33 15 359
340 340 340 339 334 335 335 337 342 352 340 312 299 307 312 284 136 228 210 183 225 291 195 263 304 235 272 245 201 147 208 165 203 109 234 225 136 141 147 138 131 130 130 119 114 112 110 103 99 95 77 48 21 1
339 338 339 336 339 332 331 335 332 322 317 224 230 265 4 341 86 222 225 198 298 302 29 329 281 261 220 225 78 195 191 177 146 204 221 224 140 157 147 140 137 134 127 119 112 102 101 94 84 75 69 51 30 16
337 336 339 353 340 330 333 333 331 8 152 238 29 8 224 188 49 3 327 336 335 6 342 318 271 284 311 229 185 178 87 211 219 227 211 157 167 156 152 147 143 148 147 137 133 134 122 106 89 77 66 43 31 26
335 337 355 340 335 333 332 334 359 98 198 24 292 23 54 333 267 326 334 322 54 277 322 300 244 315 307 258 264 120 163 225 240 248 162 132 148 145 155 160 159 155 150 148 154 159 171 171 145 66 53 46 20 17
336 337 342 337 334 334 334 349 8 24 240 261 138 337 327 309 352 352 347 330 358 337 318 255 38 54 358 351 295 210 172 211 198 111 82 134 138 144 154 164 164 160 172 183 172 154 149 170 203 219 211 261 278 302
341 312 331 344 337 342 17 25 314 254 319 286 99 249 295 278 271 291 300 311 339 312 288 322 217 93 127 273 275 312 203 82 92 94 105 123 139 143 138 143 160 157 152 162 189 196 192 183 169 182 220 219 281 281
307 321 340 346 339 341 339 350 301 294 331 5 324 9 295 267 296 299 295 273 279 314 254 341 128 203 190 211 162 340 330 80 77 84 89 94 103 105 131 142 147 150 150 156 205 225 217 227 242 249 216 210 261 221
313 319 338 340 332 328 336 13 327 352 335 319 304 292 297 300 278 291 276 280 268 242 203 217 228 228 237 324 300 136 256 224 110 96 82 73 92 108 118 118 123 133 152 184 201 266 288 275 278 268 310 145 102 72
329 329 341 336 344 282 288 286 315 292 310 340 282 322 327 345 318 331 339 336 276 212 192 221 242 246 331 337 257 314 184 224 116 105 79 64 47 78 75 92 104 126 138 341 191 58 19 45 37 169 173 151 145 107
339 344 338 350 332 314 282 315 275 292 312 291 315 330 292 78 157 309 351 335 42 45 356 278 175 93 345 303 271 251 96 109 80 82 109 112 71 69 74 64 36 56 54 35 335 45 15 343 318 352 182 168 161 138
322 332 322 332 301 309 273 229 299 324 273 301 315 339 329 335 55 80 274 322 334 3 51 332 339 358 41 88 67 69 81 93 93 92 78 81 68 54 45 32 24 33 52 61 45 19 327 304 302 191 155 154 175 182
327 328 315 322 298 33 301 304 298 32 298 334 330 356 11 17 322 305 115 103 280 298 298 295 303 337 65 68 80 70 65 95 83 79 85 88 84 75 73 57 40 55 89 71 60 72 107 85 81 133 135 103 76 345
334 339 346 355 356 330 317 340 339 339 319 358 346 30 13 358 325 38 37 22 339 339 15 6 46 88 70 55 58 51 53 77 101 93 81 83 79 62 55 56 62 73 77 77 76 76 65 72 91 102 115 113 68 355
354 7 17 336 277 328 6 355 358 2 354 349 353 32 11 336 49 33 10 356 350 7 16 21 36 51 88 88 67 73 79 73 68 76 49 58 82 75 71 76 73 69 69 61 69 74 76 80 89 100 93 136 276 301
65 357 28 356 2 358 351 348 10 349 331 331 12 354 347 36 54 48 6 358 347 345 356 4 13 41 59 28 132 104 51 41 49 83 67 104 79 75 67 61 63 63 54 77 94 89 74 69 58 41 282 272 275 278
34 2 335 215 293 291 304 335 285 309 2 6 358 346 348 54 60 45 332 25 357 354 7 31 64 89 92 99 58 12 344 29 100 107 110 99 89 79 59 45 42 20 9 292 286 312 335 338 330 328 322 318 311 306
335 315 329 335 292 237 68 341 340 7 357 352 314 123 317 14 30 353 337 359 353 30 66 57 53 65 64 58 56 97 89 120 117 105 91 73 63 59 58 34 27 11 11 2 336 339 353 3 359 352 344 333 330 326
277 240 272 297 260 224 277 261 315 322 339 301 320 348 288 29 23 8 345 338 315 111 87 22 221 27 51 78 62 68 86 120 156 123 106 79 25 40 9 1 357 18 52 80 76 68 55 49 41 32 19 11 8 11
297 198 297 290 339 358 20 327 322 339 315 315 302 162 203 307 293 322 311 359 32 330 351 13 237 315 26 69 64 55 54 55 47 31 327 292 327 326 351 70 96 98 76 70 75 69 66 60 49 41 36 30 25 19
312 302 273 266 329 19 345 341 295 302 331 356 4 288 45 3 344 343 340 354 337 321 275 224 87 135 92 116 88 70 75 33 358 317 331 315 33 83 119 107 101 92 93 107 88 63 59 64 55 39 29 21 14 10
245 258 304 291 264 36 277 10 4 358 2 19 35 349 23 36 2 332 7 6 335 319 322 19 130 131 167 163 107 83 300 335 21 25 36 183 207 248 244 272 267 255 266 271 285 301 328 1 10 3 359 2 358 354
284 274 249 249 225 188 109 220 123 80 10 22 52 72 111 314 11 298 28 7 11 15 9 60 113 125 124 135 127 123 123 29 353 358 42 31 268 264 266 272 273 272 272 272 272 265 263 257 251 231 255 287 316 331
Height
822 818 814 811 806 802 798 795 791 788 785 782 779 777 774 772 770 768 766 765 766 759 746 743 740 738 737 739 741 740 740 739 742 743 744 744 746 746 744 742 741 739 745 745 744 746 745 727 730 733 731 725 723 722
820 817 813 809 805 800 796 791 788 785 782 779 776 774 772 770 768 767 766 765 765 765 746 740 737 735 735 734 737 738 741 739 739 744 750 750 747 750 744 740 743 747 737 735 733 732 732 727 729 728 728 727 726 726
819 814 810 806 801 797 792 788 785 781 778 775 772 770 769 767 766 766 765 764 765 762 743 736 723 721 723 725 733 739 735 733 737 737 744 747 747 744 742 738 738 737 739 738 736 736 730 728 728 728 727 727 726 724
816 812 808 804 799 794 790 786 781 777 774 771 768 766 765 763 762 762 762 760 762 759 748 722 718 718 717 718 722 725 729 733 733 736 737 741 740 739 737 737 734 732 737 734 732 731 731 732 732 730 729 727 726 725
814 810 805 801 796 791 787 782 778 773 770 767 765 763 760 758 757 757 756 755 757 760 744 727 718 712 712 713 718 723 727 728 731 736 736 730 733 738 744 744 737 731 727 730 727 724 727 735 735 733 729 728 727 725
812 807 802 797 793 788 783 778 774 770 767 764 760 757 754 753 753 754 751 750 751 755 752 735 717 711 710 712 715 719 724 728 727 725 723 729 730 732 738 740 727 729 727 726 727 728 729 733 734 734 734 732 736 725
809 804 799 794 789 785 780 775 771 767 762 758 752 748 747 748 750 751 747 750 749 753 749 736 720 711 711 712 715 719 722 722 721 720 722 721 726 729 730 728 726 730 727 727 727 729 733 732 734 734 731 729 728 727
806 801 796 791 786 781 776 771 767 762 756 750 745 741 739 742 747 748 748 748 750 752 749 740 724 715 710 708 710 716 715 718 720 717 722 719 727 725 726 726 728 728 728 729 731 731 732 735 737 738 739 735 733 734
803 798 792 787 782 777 771 768 764 757 751 745 742 741 741 743 744 746 746 744 749 753 742 739 731 717 711 712 712 713 715 716 722 716 718 721 721 722 716 723 726 729 728 732 734 736 737 738 740 739 739 739 739 739
799 794 789 783 778 773 768 766 760 753 747 743 742 743 740 744 744 746 748 748 750 746 746 736 730 721 716 713 713 714 715 720 715 718 721 718 716 719 721 720 724 728 730 732 735 740 740 740 740 740 740 739 739 739
796 790 785 780 775 770 767 764 758 752 747 746 747 745 744 742 743 742 740 741 740 737 735 729 727 720 715 714 714 721 722 723 717 718 718 717 717 716 721 723 726 729 730 733 733 735 737 739 740 741 742 742 741 740
791 786 781 775 771 768 766 762 757 755 754 754 754 750 747 742 739 738 735 736 735 727 726 725 722 723 716 717 713 719 720 723 720 720 718 717 712 719 722 725 728 730 733 734 735 737 739 741 742 743 744 744 743 742
788 782 776 771 769 766 763 759 755 752 751 752 751 748 745 740 745 737 732 730 730 730 729 729 722 720 718 718 718 713 716 723 720 718 714 712 718 721 723 725 729 731 733 735 737 739 741 742 743 743 744 745 744 742
784 777 772 770 767 763 759 755 750 749 751 748 746 753 741 736 732 733 733 731 732 732 731 731 726 719 716 717 713 712 715 715 718 719 713 713 718 721 724 727 729 731 733 735 738 740 741 742 743 744 744 744 744 743
779 773 770 768 764 760 756 751 750 749 750 746 744 746 736 735 735 732 731 729 735 736 734 729 726 726 720 718 718 715 720 718 714 713 712 715 718 722 726 729 730 732 735 737 739 740 741 742 742 743 744 744 744 743
775 770 769 766 761 757 752 750 750 750 750 746 745 740 737 735 735 735 735 734 736 734 732 731 727 731 732 737 728 712 712 716 711 713 717 719 721 723 727 730 732 734 737 738 739 740 741 741 742 742 743 743 743 743
773 771 767 763 759 754 752 751 750 749 746 743 741 743 744 742 741 739 740 737 738 735 730 731 728 734 739 737 729 715 711 712 715 718 720 723 725 727 729 731 733 735 736 738 739 740 741 742 743 743 742 742 743 742
774 767 764 761 757 753 752 751 750 748 744 743 744 743 743 743 741 738 739 739 737 735 734 730 733 735 734 731 724 725 726 722 721 723 724 726 728 730 731 732 733 735 736 737 739 739 740 740 740 740 741 742 741 741
770 765 762 760 757 756 755 752 752 746 744 744 744 744 743 742 742 740 739 737 736 735 734 733 730 729 727 727 728 727 728 723 722 726 728 729 730 731 732 733 734 735 736 736 737 737 737 737 738 738 738 738 739 739
764 763 761 758 757 756 753 752 753 749 745 745 746 741 744 742 742 739 737 735 734 732 733 733 729 730 729 728 730 728 728 728 726 727 729 731 732 733 733 733 734 735 735 735 736 737 737 738 738 737 737 738 738 738
762 761 758 758 756 756 755 751 748 749 746 745 743 745 741 743 742 739 737 735 734 733 733 731 729 731 732 728 730 730 729 728 727 726 731 732 734 734 734 735 735 735 735 736 736 736 737 737 737 736 737 738 738 739
764 761 759 758 757 756 755 753 750 749 749 742 741 742 740 740 741 742 740 737 735 736 737 734 732 732 733 733 732 731 731 732 733 733 734 733 734 734 734 735 735 735 735 736 736 737 737 737 736 736 737 738 738 738
764 762 761 760 757 757 755 753 748 746 744 742 740 738 739 740 742 742 741 742 742 742 740 738 737 737 736 735 735 735 735 734 734 736 737 737 738 738 738 739 737 736 736 737 737 737 737 737 736 737 738 738 739 739
764 764 761 760 760 757 751 748 748 746 745 743 743 740 741 742 742 740 741 742 743 742 741 739 738 737 737 736 736 737 738 738 739 740 739 738 738 740 739 739 738 739 738 738 738 738 738 737 737 737 738 738 739 738
769 767 765 771 760 755 751 748 747 745 746 745 743 744 746 745 744 745 747 745 744 742 741 740 739 738 738 740 740 741 741 740 739 739 740 740 740 739 740 740 740 739 739 739 739 739 738 738 738 738 738 737 737 736
770 763 766 758 757 756 754 752 751 751 750 747 746 746 746 744 746 748 747 747 746 745 744 742 741 741 742 742 741 741 742 741 742 741 742 741 741 741 741 740 739 741 740 741 741 740 739 739 738 737 736 735 734 733
769 762 761 763 761 759 755 755 755 753 751 751 749 748 746 747 749 749 750 750 750 749 747 745 744 744 745 745 744 743 743 743 743 743 742 742 742 742 742 742 741 742 741 740 740 739 738 737 736 735 734 733 733 732
769 767 763 759 757 757 755 755 754 754 753 753 755 758 754 753 752 754 752 752 751 750 749 749 749 748 748 747 746 745 745 745 745 745 744 745 744 743 743 743 742 742 741 740 740 740 739 738 737 736 734 733 732 731
766 764 764 758 755 757 757 756 756 755 756 754 754 755 756 754 755 755 755 753 751 751 750 751 750 749 749 749 748 748 748 748 748 747 746 746 746 746 745 744 744 743 743 742 742 741 741 740 739 738 737 735 733 732
764 763 760 759 758 759 758 757 756 757 757 757 757 756 757 755 755 755 755 753 752 752 752 752 751 752 751 749 751 752 751 750 750 750 748 747 747 747 745 745 745 745 745 746 745 744 743 742 741 740 739 737 736 734
763 763 761 759 758 759 759 759 758 758 757 757 757 755 755 756 754 753 753 753 752 752 752 751 752 752 752 753 752 752 752 752 751 750 749 748 748 747 747 747 747 747 747 747 746 745 744 743 742 741 740 739 738 737
762 761 761 758 758 759 760 758 759 757 756 755 756 757 755 757 758 755 755 753 752 751 751 751 751 752 752 752 752 752 752 751 750 749 748 748 748 748 748 748 748 747 747 747 746 746 745 744 742 741 740 738 737 736
762 761 758 758 756 755 758 757 757 757 756 755 756 757 758 758 757 756 756 754 754 753 753 752 751 752 752 752 752 752 751 751 750 750 749 749 749 748 748 747 747 746 745 745 744 742 741 740 737 734 733 733 734 733